This is the latest recevied weather packets stored in our database for station/object IW1PPB-3. If no packets are shown the sender has not sent any weather packets the latest 10 day(s).
| Time | Temp. | Humidity | Pressure | Rain* | Wind** | Luminosity | Snow |
|---|---|---|---|---|---|---|---|
| 1787917430 | 28.89° C | 89% | 1014.2 hPa | 0 mm | - | - | - |
| 1787916817 | 28.89° C | 88% | 1014.4 hPa | 0 mm | - | - | - |
| 1787916208 | 28.89° C | 88% | 1014.5 hPa | 0 mm | - | - | - |
| 1787915622 | 28.89° C | 89% | 1014.2 hPa | 0 mm | - | - | - |
| 1787915013 | 28.89° C | 89% | 1014.5 hPa | 0 mm | - | - | - |
| 1787914418 | 28.33° C | 89% | 1014.5 hPa | 1.02 mm | - | - | - |
| 1787913816 | 28.33° C | 89% | 1014.2 hPa | 1.02 mm | - | - | - |
| 1787913219 | 28.33° C | 89% | 1014.1 hPa | 1.02 mm | - | - | - |
| 1787912609 | 28.33° C | 89% | 1014.3 hPa | 1.02 mm | - | - | - |
| 1787912020 | 28.89° C | 89% | 1014.5 hPa | 1.02 mm | - | - | - |
| 1787911412 | 28.33° C | 88% | 1014.5 hPa | 3.05 mm | - | - | - |
| 1787910823 | 28.89° C | 87% | 1014.4 hPa | 3.05 mm | - | - | - |
| 1787910212 | 28.89° C | 85% | 1014.7 hPa | 3.05 mm | - | - | - |
| 1787909628 | 28.89° C | 78% | 1015.1 hPa | 3.05 mm | - | - | - |
| 1787909017 | 28.33° C | 75% | 1015.3 hPa | 3.05 mm | - | - | - |
| 1787908431 | 28.33° C | 79% | 1015 hPa | 3.05 mm | - | - | - |
| 1787907821 | 28.33° C | 87% | 1015.6 hPa | 1.02 mm | - | - | - |
| 1787907207 | 28.33° C | 86% | 1016.3 hPa | 0 mm | - | - | - |
| 1787906626 | 28.89° C | 86% | 1015.7 hPa | 0 mm | - | - | - |
| 1787906014 | 29.44° C | 85% | 1015.9 hPa | 0 mm | - | - | - |
| 1787905407 | 29.44° C | 85% | 1015.2 hPa | 0 mm | - | - | - |
| 1787904808 | 29.44° C | 84% | 1014.8 hPa | 0 mm | - | - | - |
| 1787904210 | 28.89° C | 85% | 1015.6 hPa | 0 mm | - | - | - |
| 1787903613 | 28.89° C | 86% | 1015.2 hPa | 0 mm | - | - | - |
| 1787903004 | 28.33° C | 86% | 1015.9 hPa | 0 mm | - | - | - |
* Rain latest hour (hover to see other rain measurements)
** Current wind speed in m/s (hover to see current wind gust speed)